Home   Weather   Reykjavik   Past weeks

Flag for Iceland Past Weather in Reykjavik, Iceland — Yesterday and Last 2 Weeks

Now
36 °F

Drizzle. Fog.


Feels Like: 36 °F
Forecast: N/A
Wind: No wind

Location: Reykjavik Airport

Current Time: Feb 19, 2017 at 11:38:02 pm

Latest Report: Feb 19, 2017 at 11:00 pm


Visibility: 2 mi

Pressure: 29.36 "Hg

Humidity: 100%

Dew Point: 36 °F

Location of ReykjavikLocation

Past Weather in Reykjavik — Graph

°F

Reykjavik Temperature Yesterday

Maximum temperature yesterday: 45 °F (at 12:00 am)
Minimum temperature yesterday: 37 °F (at 8:00 am)
Average temperature yesterday: 40 °F

High & Low Weather Summary for the Past Weeks

 TemperatureHumidityPressure
High45 °F (Feb 8, 6:00 am)100% (Feb 16, 3:00 am)30.36 "Hg (Feb 16, 3:00 am)
Low30 °F (Feb 16, 5:00 am)53% (Feb 8, 8:36 pm)28.85 "Hg (Feb 6, 7:00 pm)
Average40 °F84%29.70 "Hg
* Reported Feb 4 10:00 pm — Feb 19 10:00 pm, Reykjavik, Weather by CustomWeather, © 2017

Note: Actual official high and low records may vary slightly from our data, if they occured in-between our weather recording intervals... More about our weather records

Advertising

Reykjavik Weather History for the Previous 24 Hours

Scroll right to see more
 ConditionsComfort  
Time TempWeatherWind HumidityBarometerVisibility
10:00 pm
Sun, Feb 19
36 °FDrizzle. Fog.2 mph100%29.36 "Hg2 mi
9:00 pm37 °FFog.7 mph93%29.39 "Hg5 mi
8:11 pm36 °FDrizzle. Fog.9 mph100%29.39 "Hg1 mi
7:00 pm37 °FDrizzle. Fog.6 mph93%29.42 "Hg1 mi
6:34 pm37 °FDrizzle. Fog.6 mph93%29.42 "Hg1 mi
6:00 pm37 °FSleet. Fog.3 mph100%29.39 "Hg3 mi
5:06 pm39 °FDrizzle. Fog.7 mph93%29.42 "Hg1 mi
4:00 pm39 °FFog.6 mph93%29.42 "Hg1 mi
3:26 pm39 °FFog.3 mph93%29.42 "Hg1 mi
3:00 pm39 °FFog.6 mph93%29.42 "Hg2 mi
2:24 pm39 °FLow clouds.7 mph100%29.42 "HgN/A
2:00 pm39 °FSleet. Fog.7 mph93%29.42 "Hg4 mi
1:00 pm41 °FDrizzle. Fog.9 mph93%29.39 "Hg0 mi
12:00 pm43 °FDrizzle. Fog.2 mph93%29.36 "Hg1 mi
11:33 am43 °FDrizzle. Fog.5 mph93%29.36 "Hg1 mi
11:00 am43 °FDrizzle. Fog.2 mph93%29.36 "Hg2 mi
10:00 am41 °FDrizzle. Fog.3 mph93%29.36 "Hg3 mi
9:00 am41 °FDrizzle. Mostly cloudy.5 mph93%29.36 "HgN/A
8:00 am41 °FLight rain. Mostly cloudy.5 mph93%29.36 "HgN/A
7:00 am41 °FLight rain. Mostly cloudy.5 mph93%29.39 "HgN/A
6:00 am41 °FLight rain. Mostly cloudy.7 mph93%29.42 "HgN/A
5:00 am39 °FLight rain. Fog.5 mph93%29.45 "Hg6 mi
4:00 am39 °FLight rain. Overcast.7 mph93%29.47 "HgN/A
3:00 am39 °FLight rain. Mostly cloudy.6 mph93%29.50 "HgN/A
2:00 am39 °FMostly cloudy.5 mph93%29.53 "HgN/A
1:00 am39 °FScattered showers. Mostly cloudy.5 mph93%29.56 "HgN/A
12:00 am39 °FScattered showers. Mostly cloudy.6 mph93%29.56 "HgN/A
11:00 pm
Sat, Feb 18
39 °FPassing clouds.6 mph93%29.56 "HgN/A
Weather by CustomWeather, © 2017

See weather overviewHow to use our weather pages